This is the latest recevied weather packets stored in our database for station/object W0WC. If no packets are shown the sender has not sent any weather packets the latest 10 day(s).
| Time | Temp. | Humidity | Pressure | Rain* | Wind** | Luminosity | Snow |
|---|---|---|---|---|---|---|---|
| 1788213974 | 38.89° C | 28% | 1015.1 hPa | 0 mm | - | 320 W/m² | - |
| 1788213670 | 38.89° C | 28% | 1015.2 hPa | 0 mm | - | 338 W/m² | - |
| 1788213365 | 38.89° C | 28% | 1015.2 hPa | 0 mm | - | 355 W/m² | - |
| 1788213055 | 38.33° C | 29% | 1015.3 hPa | 0 mm | - | 369 W/m² | - |
| 1788212752 | 38.89° C | 29% | 1015.5 hPa | 0 mm | - | 392 W/m² | - |
| 1788212448 | 38.89° C | 29% | 1015.6 hPa | 0 mm | - | 451 W/m² | - |
| 1788212144 | 38.89° C | 28% | 1015.6 hPa | 0 mm | - | 451 W/m² | - |
| 1788211839 | 38.33° C | 29% | 1015.6 hPa | 0 mm | - | 448 W/m² | - |
| 1788211536 | 37.78° C | 30% | 1015.4 hPa | 0 mm | - | 462 W/m² | - |
| 1788211231 | 38.33° C | 29% | 1015.6 hPa | 0 mm | - | 456 W/m² | - |
| 1788210925 | 38.33° C | 29% | 1015.6 hPa | 0 mm | - | 468 W/m² | - |
| 1788210625 | 38.89° C | 28% | 1015.8 hPa | 0 mm | - | 483 W/m² | - |
| 1788210320 | 38.89° C | 29% | 1015.7 hPa | 0 mm | - | 514 W/m² | - |
| 1788210016 | 38.89° C | 29% | 1015.7 hPa | 0 mm | - | 497 W/m² | - |
| 1788209711 | 39.44° C | 29% | 1015.7 hPa | 0 mm | - | 522 W/m² | - |
| 1788209407 | 37.78° C | 30% | 1015.8 hPa | 0 mm | - | 526 W/m² | - |
| 1788209107 | 38.33° C | 30% | 1015.7 hPa | 0 mm | - | 529 W/m² | - |
| 1788208805 | 37.78° C | 30% | 1015.9 hPa | 0 mm | - | 547 W/m² | - |
| 1788208523 | 37.78° C | 30% | 1016 hPa | 0 mm | - | 560 W/m² | - |
| 1788208203 | 38.33° C | 29% | 1016.1 hPa | 0 mm | - | 574 W/m² | - |
| 1788207898 | 37.78° C | 30% | 1016.1 hPa | 0 mm | - | 590 W/m² | - |
| 1788207598 | 38.33° C | 29% | 1016.3 hPa | 0 mm | - | 599 W/m² | - |
| 1788207296 | 38.33° C | 29% | 1016.2 hPa | 0 mm | - | 604 W/m² | - |
| 1788206993 | 38.33° C | 28% | 1016.4 hPa | 0 mm | - | 616 W/m² | - |
| 1788206688 | 37.78° C | 29% | 1016.4 hPa | 0 mm | - | 629 W/m² | - |
* Rain latest hour (hover to see other rain measurements)
** Current wind speed in m/s (hover to see current wind gust speed)